Regional Weather Roundup
Issued by NWS Cleveland, OH

Home | Current Version | Previous Version | Graphics & Text | Print | Product List | Glossary On
Versions: 1 2 3 4 5 6 7 8 9 10 11 12 13 14 15 16 17 18 19 20 21 22 23 24 25 26 27 28 29 30 31 32 33 34 35 36 37 38 39 40 41 42 43 44 45 46 47 48 49 50
639
ASUS41 KCLE 250600
RWRCLE
OHIO REGIONAL WEATHER ROUNDUP
NATIONAL WEATHER SERVICE WILMINGTON, OH
200 AM EDT SUN JUN 25 2017

NOTE: "FAIR" INDICATES FEW OR NO CLOUDS BELOW 12,000 FEET WITH NO
SIGNIFICANT WEATHER AND/OR OBSTRUCTIONS TO VISIBILITY.

OHZ001>008-015>018-024>027-034-035-043-044-250700-
   NORTHWEST OHIO

CITY           SKY/WX    TMP DP  RH WIND       PRES   REMARKS
DEFIANCE       FAIR      61  50  67 VRB5      30.06S
FINDLAY        CLOUDY    63  52  67 W3        30.04S
TOLEDO EXPRESS FAIR      57  51  80 W6        30.03S
TOLEDO EXEC    FAIR      61  52  72 SW6       30.03F
LIMA           FAIR      63  49  60 W12       30.06S
$$

OHZ009>014-019>023-028>033-038-089-250700-
   NORTHEAST OHIO

CITY           SKY/WX    TMP DP  RH WIND       PRES   REMARKS
CLE-HOPKINS    FAIR      67  53  61 W7        30.03F
CLE-LAKEFRONT  FAIR      69  54  58 NW15      30.00S
CUY CO. ARPT   NOT AVBL
LORAIN-ELYRIA  FAIR      61  50  67 NW6       30.03F
ASHTABULA      FAIR      58  58 100 CALM      30.02S
AKRON-CANTON   FAIR      62  53  72 NW5       30.04R
WOOSTER        NOT AVBL
MANSFIELD      FAIR      59  56  89 SW5       30.05S
YOUNGSTOWN     FAIR      59  56  89 CALM      30.02S
$$

OHZ042-051>053-060>062-070>072-077>081-250700-
  SOUTHWEST OHIO

CITY           SKY/WX    TMP DP  RH WIND       PRES   REMARKS
CINC-COVINGTON FAIR      61  52  72 W6        30.11S
CINC-LUNKEN    FAIR      59  55  87 CALM      30.11S
HAMILTON       FAIR      56  54  93 CALM      30.11F
DAYTON         NOT AVBL
WRIGHT-PAT AFB CLEAR     56  51  84 SW7       30.09S
DAYTON GENERAL FAIR      62  48  60 W6        30.09S
WILMINGTON     FAIR      61  51  70 W7        30.10S
$$

OHZ036-037-039>041-045>050-054>059-063>069-073>076-082>088-250700-
  CENTRAL AND SOUTHEAST OHIO

CITY           SKY/WX    TMP DP  RH WIND       PRES   REMARKS
COLUMBUS       FAIR      62  53  72 W7        30.06S
OSU AIRPORT    FAIR      60  53  77 W6        30.07S
BOLTON FIELD   NOT AVBL
RICKENBACK AFB NOT AVBL
NEWARK         FAIR      63  52  67 W8        30.06S
MARION         FAIR      62  52  69 W5        30.06S
LANCASTER      FAIR      64  52  64 NW7       30.07S
ZANESVILLE     FAIR      65  55  70 W6        30.05F
NEW PHILLY     FAIR      63  58  83 CALM      30.05R
$$




USA.gov is the U.S. government's official web portal to all federal, state and local government web resources and services.